DW7013 Weather Reports


time (UTC)temp
C
wind
direction
speed
KPH
gust
KPH
rain 1hr
cm
rain 24hr
cm
rain mn
cm
humidity
%
barometer
mb
20260507023224 6 138 0.0 4.8 0.13 1.45 0.28 95 1011.8
20260507022718 6 171 0.0 4.8 0.13 1.45 0.28 95 1011.8
20260507022219 6 173 0.0 6.4 0.10 1.45 0.25 95 1011.8
20260507021720 6 142 0.0 8.0 0.10 1.45 0.25 95 1011.7
20260507021226 6 107 0.0 8.0 0.10 1.42 0.23 95 1011.7
20260507020724 6 155 1.6 8.0 0.08 1.40 0.23 95 1011.6
20260507020230 6 145 1.6 6.4 0.08 1.40 0.23 95 1011.6
20260507015726 6 162 0.0 8.0 0.05 1.37 0.20 95 1011.6
20260507015222 6 150 0.0 8.0 0.05 1.37 0.20 95 1011.6
20260507014721 6 155 0.0 8.0 0.05 1.37 0.18 95 1011.6
20260507014225 6 161 0.0 8.0 0.05 1.37 0.18 95 1011.5
20260507013721 6 155 0.0 4.8 0.03 1.35 0.15 95 1011.4
20260507013223 6 141 0.0 4.8 0.03 1.35 0.15 95 1011.5
20260507012727 6 127 0.0 6.4 0.05 1.35 0.15 95 1011.4
20260507012218 6 132 0.0 11.3 0.05 1.35 0.15 95 1011.4
20260507011728 6 135 1.6 11.3 0.05 1.35 0.15 95 1011.4
20260507010737 6 141 1.6 8.0 0.03 1.32 0.15 94 1011.4
20260507010222 6 155 1.6 11.3 0.03 1.32 0.15 94 1011.4
20260507005723 6 136 3.2 11.3 0.03 1.32 0.15 94 1011.4
20260507005221 6 132 3.2 12.9 0.03 1.32 0.15 94 1011.4
20260507004721 6 153 3.2 12.9 0.03 1.32 0.15 94 1011.3
20260507004213 6 136 3.2 12.9 0.03 1.32 0.15 94 1011.4
20260507003710 6 123 3.2 14.5 0.03 1.32 0.15 94 1011.3
20260507003207 6 144 3.2 14.5 0.00 1.30 0.13 94 1011.3
20260507002720 6 119 3.2 12.9 0.03 1.30 0.13 94 1011.4
20260507001734 6 142 4.8 14.5 0.03 1.30 0.13 94 1011.3
20260507001212 6 172 4.8 14.5 0.03 1.30 0.13 94 1011.4
20260507000223 6 173 1.6 6.4 0.05 1.30 0.13 94 1011.3
20260506235720 6 151 0.0 1.6 0.05 1.30 0.13 94 1011.3
20260506235220 6 144 0.0 1.6 0.05 1.30 0.13 94 1011.4
20260506234720 6 159 0.0 1.6 0.05 1.30 0.13 94 1011.3
20260506234223 6 110 0.0 0.0 0.05 1.30 0.13 94 1011.3
20260506233728 6 161 0.0 0.0 0.05 1.30 0.13 94 1011.4
20260506233231 6 150 0.0 8.0 0.08 1.30 0.13 94 1011.4
20260506232717 6 140 0.0 11.3 0.08 1.27 0.10 93 1011.5
20260506232219 6 153 1.6 11.3 0.08 1.27 0.10 93 1011.5
20260506231228 6 140 1.6 8.0 0.10 1.27 0.10 93 1011.6
20260506230724 6 126 1.6 9.7 0.08 1.27 0.08 93 1011.5
20260506230225 6 159 3.2 14.5 0.08 1.27 0.08 93 1011.5
20260506225707 6 168 4.8 17.7 0.08 1.27 0.08 93 1011.5
20260506225215 6 135 8.0 17.7 0.08 1.27 0.08 93 1011.5
20260506224214 6 130 4.8 14.5 0.05 1.24 0.05 93 1011.5
20260506223219 6 155 4.8 14.5 0.05 1.22 0.05 93 1011.5
20260506222725 6 96 4.8 11.3 0.03 1.19 0.03 93 1011.6
20260506222226 6 158 3.2 12.9 0.03 1.19 0.03 92 1011.4
20260506221716 6 68 3.2 12.9 0.00 1.17 0.00 92 1011.4
20260506220717 6 98 4.8 12.9 0.00 1.17 0.00 92 1011.3
20260506220231 6 92 4.8 12.9 0.00 1.17 1.17 92 1011.4
20260506215729 6 92 3.2 24.1 0.00 1.17 1.17 92 1011.4
20260506215214 6 154 3.2 24.1 0.00 1.17 1.17 92 1011.4
20260506214720 6 108 8.0 24.1 0.00 1.17 1.17 92 1011.4
20260506213714 6 111 6.4 14.5 0.00 1.17 1.17 92 1011.2
20260506213212 6 150 6.4 14.5 0.03 1.17 1.17 92 1011.1
20260506212714 6 169 3.2 14.5 0.03 1.17 1.17 92 1011.1
20260506212222 6 164 3.2 16.1 0.03 1.17 1.17 92 1010.9
20260506211708 6 95 4.8 16.1 0.03 1.17 1.17 92 1010.9
20260506211229 6 93 4.8 16.1 0.05 1.17 1.17 92 1010.9
20260506210230 6 132 4.8 16.1 0.05 1.17 1.17 92 1010.8
20260506205723 6 109 4.8 16.1 0.05 1.17 1.17 92 1010.8
20260506205212 6 154 1.6 0.0 0.05 1.17 1.17 94 1010.7
20260506204715 6 131 0.0 0.0 0.05 1.17 1.17 94 1010.8
20260506204222 6 110 0.0 0.0 0.05 1.17 1.17 94 1010.8
20260506203724 6 113 0.0 0.0 0.05 1.17 1.17 94 1010.8
20260506203213 6 113 0.0 0.0 0.05 1.17 1.17 94 1010.8
20260506202725 6 119 0.0 0.0 0.05 1.17 1.17 94 1010.7
20260506202209 6 140 0.0 0.0 0.05 1.17 1.17 94 1010.7
20260506201724 6 146 0.0 0.0 0.05 1.17 1.17 94 1010.7
20260506201213 6 128 0.0 0.0 0.05 1.14 1.14 94 1010.6
20260506200729 6 51 0.0 0.0 0.05 1.14 1.14 94 1010.6
20260506200218 6 22 0.0 0.0 0.05 1.14 1.14 94 1010.6
20260506195729 6 169 0.0 0.0 0.05 1.14 1.14 94 1010.6
20260506195214 6 169 0.0 3.2 0.05 1.14 1.14 94 1010.6
20260506194720 6 88 0.0 4.8 0.05 1.14 1.14 94 1010.5
20260506193716 6 123 0.0 8.0 0.05 1.12 1.12 94 1010.5
20260506193222 6 115 0.0 9.7 0.05 1.12 1.12 93 1010.4
20260506192724 6 160 1.6 9.7 0.05 1.12 1.12 93 1010.4
20260506192214 6 152 1.6 9.7 0.08 1.12 1.12 93 1010.4
20260506191751 6 121 1.6 9.7 0.08 1.09 1.09 93 1010.4
20260506190723 6 128 0.0 11.3 0.10 1.09 1.09 93 1010.2
20260506190212 7 109 1.6 12.9 0.13 1.09 1.09 94 1010.2
20260506185726 7 180 3.2 12.9 0.13 1.09 1.09 93 1010.2
20260506185209 7 188 3.2 12.9 0.13 1.09 1.09 94 1010.2
20260506184713 7 127 1.6 11.3 0.15 1.09 1.09 94 1010.1
20260506184230 7 117 1.6 11.3 0.15 1.09 1.09 94 1010.0
20260506183715 7 98 1.6 11.3 0.15 1.09 1.09 94 1010.0
20260506183225 7 121 1.6 11.3 0.15 1.07 1.07 94 1010.0
20260506182712 7 148 0.0 4.8 0.18 1.07 1.07 94 1009.9
20260506182225 7 139 0.0 8.0 0.15 1.07 1.04 94 1009.9
20260506181721 7 148 1.6 8.0 0.15 1.04 1.02 94 1009.8
20260506181212 7 129 0.0 8.0 0.15 1.04 0.99 94 1009.8
20260506180211 7 117 0.0 6.4 0.15 1.09 0.99 94 1009.7
20260506175724 7 159 0.0 8.0 0.15 1.09 0.97 94 1009.7
20260506175219 7 103 1.6 8.0 0.15 1.14 0.97 94 1009.7
20260506174717 7 113 1.6 8.0 0.15 1.27 0.94 94 1009.5
20260506174221 7 154 0.0 6.4 0.15 1.27 0.91 93 1009.5
20260506173732 7 144 0.0 6.4 0.18 1.27 0.89 93 1009.4
20260506173230 7 157 0.0 9.7 0.15 1.27 0.89 93 1009.3
20260506172724 7 156 1.6 11.3 0.15 1.24 0.89 93 1009.3
20260506171722 7 101 3.2 11.3 0.15 1.22 0.86 93 1009.2
20260506171230 7 122 1.6 11.3 0.15 1.19 0.84 94 1009.1
20260506170728 7 144 3.2 11.3 0.15 1.19 0.84 94 1009.1
20260506170221 7 142 3.2 11.3 0.15 1.17 0.81 94 1009.1
20260506165717 7 142 1.6 8.0 0.15 1.17 0.79 94 1009.0
20260506165220 7 109 1.6 8.0 0.15 1.17 0.79 94 1009.0
20260506164719 7 126 1.6 9.7 0.13 1.14 0.79 94 1009.0
20260506164221 7 129 1.6 9.7 0.13 1.12 0.76 94 1009.1
20260506163715 7 128 3.2 9.7 0.10 1.09 0.74 94 1009.0
20260506163216 7 143 1.6 6.4 0.08 1.09 0.71 93 1009.0
20260506162225 7 140 0.0 6.4 0.05 1.07 0.71 93 1009.0
20260506161735 7 133 1.6 6.4 0.05 1.07 0.71 93 1009.0
20260506161217 7 156 1.6 6.4 0.05 1.07 0.71 93 1009.1
20260506160242 7 96 1.6 6.4 0.05 1.04 0.69 93 1009.1
20260506155707 7 134 1.6 8.0 0.05 1.02 0.66 93 1009.1
20260506155219 7 142 1.6 8.0 0.05 1.02 0.66 93 1009.1
20260506154724 7 146 1.6 9.7 0.05 0.99 0.64 93 1009.1
20260506154208 7 165 3.2 9.7 0.05 0.99 0.64 93 1009.0
20260506153218 7 120 4.8 9.7 0.08 0.99 0.64 92 1009.0
20260506152717 7 130 3.2 8.0 0.08 0.99 0.64 92 1009.0
20260506152224 7 136 3.2 8.0 0.10 0.99 0.64 92 1009.1
20260506151718 7 132 1.6 8.0 0.10 0.99 0.64 92 1009.0
20260506151220 7 153 1.6 8.0 0.08 0.99 0.61 92 1009.0
20260506150720 7 133 0.0 8.0 0.10 0.99 0.61 92 1009.0
20260506150218 7 142 1.6 9.7 0.10 0.99 0.61 92 1008.9
20260506145713 7 111 3.2 9.7 0.13 0.99 0.61 92 1008.9
20260506144718 7 131 1.6 6.4 0.10 1.04 0.58 92 1008.9
20260506144230 7 117 1.6 11.3 0.10 1.14 0.58 92 1008.8
20260506143722 7 115 3.2 11.3 0.10 1.27 0.56 91 1008.8
20260506143209 7 136 3.2 11.3 0.15 1.37 0.56 91 1008.9
20260506142718 7 67 1.6 16.1 0.15 1.37 0.56 91 1008.7
20260506142219 7 229 1.6 17.7 0.13 1.35 0.53 90 1008.8
20260506141718 7 151 4.8 17.7 0.15 1.35 0.53 90 1008.8
20260506141206 7 14 6.4 17.7 0.15 1.35 0.53 89 1008.7
20260506140716 8 110 3.2 12.9 0.13 1.32 0.51 90 1008.8
20260506140222 8 76 1.6 12.9 0.10 1.30 0.51 91 1008.6
20260506135729 8 166 1.6 17.7 0.13 1.30 0.51 91 1008.6
20260506135212 8 161 3.2 17.7 0.18 1.27 0.48 90 1008.6
20260506134712 8 334 4.8 17.7 0.20 1.27 0.48 91 1008.7
20260506134229 8 69 3.2 16.1 0.20 1.27 0.46 91 1008.6
20260506133725 8 95 1.6 12.9 0.18 1.24 0.43 91 1008.6
20260506132714 8 165 4.8 12.9 0.20 1.22 0.43 91 1008.6
20260506132217 8 152 6.4 19.3 0.23 1.22 0.43 91 1008.7
20260506131727 8 143 4.8 19.3 0.23 1.19 0.41 90 1008.7
20260506131221 8 22 6.4 20.9 0.23 1.19 0.41 90 1008.7
20260506130713 8 32 8.0 22.5 0.23 1.19 0.41 90 1008.6
20260506130221 8 126 11.3 22.5 0.23 1.17 0.38 91 1008.6
20260506125710 8 146 8.0 22.5 0.23 1.17 0.38 91 1008.5
20260506124721 9 108 1.6 11.3 0.15 1.09 0.25 91 1008.1
20260506124221 9 82 3.2 12.9 0.13 1.07 0.25 89 1008.0
20260506123711 9 311 4.8 12.9 0.13 1.04 0.23 90 1008.1
20260506123223 10 168 3.2 12.9 0.15 1.04 0.23 91 1007.9
20260506122721 10 97 0.0 9.7 0.10 0.99 0.20 92 1007.8
20260506121715 10 147 1.6 11.3 0.08 0.97 0.15 91 1007.8
20260506121227 10 156 3.2 11.3 0.08 0.97 0.15 90 1007.8
20260506120713 10 58 3.2 11.3 0.08 0.97 0.15 91 1007.8
20260506115722 10 124 3.2 8.0 0.10 0.97 0.15 92 1007.6
20260506115219 10 146 1.6 8.0 0.08 0.94 0.15 91 1007.6
20260506114725 10 159 1.6 8.0 0.08 0.94 0.15 92 1007.7
20260506114219 10 140 1.6 8.0 0.08 0.94 0.15 92 1007.6
20260506113221 10 169 0.0 8.0 0.05 0.89 0.10 91 1007.6
20260506112215 10 129 0.0 6.4 0.05 0.89 0.08 91 1007.6
20260506111727 10 163 0.0 6.4 0.05 0.89 0.08 91 1007.7
20260506111219 10 145 0.0 8.0 0.05 0.89 0.08 90 1007.7
20260506110719 10 155 1.6 11.3 0.05 0.89 0.08 90 1007.7
20260506105718 10 172 3.2 11.3 0.05 0.89 0.05 90 1007.8
20260506105216 10 171 3.2 11.3 0.05 0.89 0.05 91 1007.8
20260506104714 10 191 4.8 11.3 0.05 0.89 0.05 91 1007.7
20260506104217 10 163 1.6 6.4 0.05 0.89 0.05 91 1007.7
20260506103719 10 158 1.6 8.0 0.03 0.86 0.05 91 1007.7
20260506103220 10 158 1.6 8.0 0.03 0.86 0.05 90 1007.7
20260506102732 10 153 4.8 8.0 0.00 0.84 0.03 89 1007.7
20260506102219 10 164 3.2 8.0 0.00 0.84 0.03 89 1007.6
20260506101229 10 141 0.0 0.0 0.00 0.84 0.03 88 1007.6
20260506100707 10 136 0.0 0.0 0.00 0.84 0.03 88 1007.6
20260506100253 10 117 0.0 0.0 0.00 0.84 0.03 87 1007.6
20260506095709 10 160 0.0 0.0 0.00 0.84 0.03 87 1007.5
20260506094716 10 171 0.0 0.0 0.03 0.84 0.03 85 1007.5
20260506094208 10 173 0.0 0.0 0.03 0.84 0.03 85 1007.4
20260506093722 10 171 0.0 0.0 0.03 0.84 0.03 85 1007.4
20260506093221 10 152 0.0 0.0 0.03 0.84 0.03 85 1007.4
20260506092722 10 148 0.0 6.4 0.03 0.84 0.03 86 1007.4
20260506092209 10 104 0.0 6.4 0.03 0.84 0.03 86 1007.4
20260506091715 10 145 1.6 8.0 0.03 0.84 0.03 86 1007.5
20260506090725 10 188 1.6 0.0 0.03 0.84 0.03 86 1007.4
20260506090211 10 149 0.0 0.0 0.03 0.84 0.03 85 1007.4
20260506085709 10 151 0.0 0.0 0.03 0.84 0.03 85 1007.3
20260506085224 10 170 0.0 6.4 0.03 0.84 0.03 85 1007.3
20260506084221 11 180 0.0 6.4 0.00 0.81 0.00 84 1007.2
20260506083224 11 172 0.0 0.0 0.00 0.84 0.00 84 1007.1
20260506082717 11 169 0.0 0.0 0.00 0.84 0.00 84 1006.9
20260506081725 10 186 0.0 0.0 0.00 0.84 0.00 84 1006.8
20260506081217 10 161 0.0 0.0 0.00 0.84 0.00 85 1006.9
20260506080717 10 131 0.0 0.0 0.00 0.86 0.00 87 1006.9
20260506080216 10 333 0.0 0.0 0.00 0.86 0.00 88 1006.9
20260506073222 9 165 0.0 0.0 0.00 0.86 0.00 91 1007.2
20260506072713 9 172 0.0 0.0 0.00 0.86 0.00 92 1007.3
20260506072213 9 172 0.0 0.0 0.00 0.86 0.00 93 1007.2
20260506071727 9 160 0.0 0.0 0.00 0.86 0.00 93 1007.3
20260506071216 9 146 0.0 0.0 0.00 0.86 0.00 93 1007.2
20260506070711 9 126 0.0 0.0 0.00 0.86 0.00 94 1007.2
20260506070207 9 131 0.0 0.0 0.00 0.86 0.00 95 1007.2
20260506062221 8 144 0.0 0.0 0.00 0.86 0.00 95 1007.2
20260506061724 8 144 0.0 0.0 0.00 0.86 0.00 95 1007.3
20260506061214 8 144 0.0 0.0 0.00 0.86 0.00 95 1007.3
20260506060724 8 144 0.0 0.0 0.00 0.86 0.00 95 1007.3
20260506060225 8 67 0.0 0.0 0.00 0.86 0.00 95 1007.3
20260506051218 7 67 0.0 0.0 0.00 0.86 0.00 95 1007.3
20260506050212 7 285 0.0 0.0 0.00 0.86 0.00 95 1007.3
20260506044709 7 249 0.0 0.0 0.00 0.86 0.00 95 1007.6
20260506044218 7 249 0.0 0.0 0.00 0.86 0.00 95 1007.6
20260506043225 7 162 0.0 0.0 0.00 0.86 0.00 95 1007.6
20260506042729 7 319 0.0 0.0 0.00 0.86 0.00 95 1007.6
20260506042221 7 319 0.0 0.0 0.00 0.86 0.00 95 1007.6
20260506041724 7 319 0.0 0.0 0.00 0.86 0.00 95 1007.6
20260506040713 7 310 0.0 0.0 0.00 0.86 0.00 95 1007.6
20260506040218 7 311 0.0 0.0 0.00 0.86 0.00 95 1007.7
20260506035216 7 311 0.0 0.0 0.00 0.86 0.00 95 1007.9
20260506034722 7 111 0.0 0.0 0.00 0.86 0.00 95 1007.9
20260506033719 7 111 0.0 0.0 0.00 0.86 0.00 95 1007.9
20260506033223 7 100 0.0 0.0 0.00 0.86 0.00 95 1007.8
20260506032730 7 23 0.0 0.0 0.00 0.86 0.00 95 1007.9
20260506032228 7 23 0.0 0.0 0.00 0.86 0.00 95 1007.9
20260506031724 7 23 0.0 0.0 0.00 0.86 0.00 95 1007.9
20260506031220 7 23 0.0 0.0 0.00 0.86 0.00 95 1008.0
20260506030727 7 23 0.0 0.0 0.00 0.86 0.00 95 1007.9
20260506025715 7 23 0.0 0.0 0.00 0.86 0.00 95 1008.1
20260506024723 7 28 0.0 0.0 0.00 0.86 0.00 95 1008.1
20260506024211 7 30 0.0 0.0 0.00 0.86 0.00 95 1008.1